Theta_e
344 346 344 343 344 344 348 351 349 351 351 351 350 350 350 349 348 345 345 349 348 345 342 341 344 346 346 347 348 347 345 345 344 344 344 344 345 345 345 344 344 343 342 343 344 345 344 343 344 344 345 346 345 333 333 334 327 329 330 331 334 327
344 345 343 343 344 344 346 348 344 346 346 348 349 350 348 347 345 342 344 346 344 344 340 339 340 347 346 347 346 345 345 344 344 344 343 342 343 343 344 344 343 343 343 343 344 335 334 339 340 342 342 344 334 331 329 332 327 329 330 330 333 330
344 345 342 342 343 344 344 343 343 345 345 349 349 349 345 344 341 341 341 343 345 344 339 341 344 347 347 346 346 345 345 344 344 344 344 342 342 342 343 343 343 343 343 344 334 331 334 332 332 338 341 339 336 334 328 327 327 329 330 329 332 333
343 344 343 342 342 341 340 341 342 343 343 343 343 344 341 340 339 340 340 342 342 342 342 340 345 345 341 341 341 345 343 344 343 343 343 342 343 342 343 343 343 343 338 334 333 334 334 331 331 331 333 335 337 336 329 328 328 328 329 330 331 335
344 344 343 343 342 340 340 340 340 341 341 340 340 340 339 338 338 338 339 342 341 341 340 338 338 338 338 336 336 339 341 341 340 337 342 336 337 338 337 334 331 334 330 333 333 332 332 332 333 331 332 334 336 335 334 331 328 328 328 329 332 335
343 343 343 342 341 342 342 338 339 339 339 339 340 339 338 337 338 339 339 341 341 339 337 336 335 332 335 335 337 336 336 336 335 336 341 334 333 331 330 329 330 332 333 331 331 331 330 333 330 330 329 333 334 338 336 332 329 329 328 328 332 336
341 342 342 342 340 343 340 339 338 339 340 341 340 337 337 338 339 340 340 342 340 338 337 335 336 334 334 335 337 336 335 336 334 334 337 335 334 332 332 332 331 332 330 332 332 331 329 328 327 327 328 327 333 335 335 332 329 329 328 329 332 336
340 341 341 341 340 341 339 338 339 343 343 344 342 338 337 337 339 340 340 342 343 340 338 335 336 336 337 337 339 336 334 334 334 334 335 334 334 332 332 332 332 331 333 332 331 331 329 328 327 327 327 327 328 332 334 333 331 329 329 329 331 335
339 341 340 340 340 341 340 339 340 342 342 345 342 340 338 338 339 340 341 343 343 340 339 338 339 340 338 338 338 336 335 334 334 334 334 334 335 333 332 332 333 333 331 331 330 330 330 329 329 328 326 327 327 328 331 334 332 330 329 330 331 333
339 339 339 339 339 340 341 340 340 342 341 344 341 341 340 339 339 340 340 342 343 341 340 339 339 340 339 338 337 337 336 334 334 334 334 334 335 334 334 332 332 332 332 331 331 330 334 331 330 330 328 327 328 328 330 333 332 331 330 331 331 333
338 340 338 338 338 340 341 340 341 342 342 342 341 341 340 339 339 339 339 341 342 342 341 340 339 339 338 338 337 336 336 335 334 334 335 334 334 335 334 333 332 332 331 331 331 331 332 332 331 331 331 331 330 330 331 333 333 332 330 331 331 333
337 339 337 337 338 339 339 340 340 340 341 342 341 339 339 338 339 338 339 339 341 342 341 339 339 338 337 337 336 336 335 335 335 334 335 334 333 335 334 333 333 333 333 332 332 332 332 332 331 331 330 329 331 333 333 332 332 332 331 331 331 333
336 337 335 335 337 338 339 340 339 339 340 340 340 339 338 338 338 338 339 339 340 340 341 338 337 338 339 336 336 335 335 336 336 335 335 335 334 334 333 333 332 334 332 332 332 332 333 334 331 330 332 334 335 334 332 332 333 332 332 332 332 333
336 336 335 334 335 336 337 339 340 339 339 339 339 338 338 337 338 338 338 338 338 339 339 338 337 337 339 336 336 335 335 335 336 335 335 335 334 333 332 331 331 332 334 335 332 331 334 334 334 335 336 336 335 334 334 332 333 333 333 333 333 334
337 336 336 334 335 334 336 338 339 338 337 337 338 338 338 337 337 337 337 337 337 338 339 337 337 337 337 336 335 335 335 335 336 336 335 335 334 333 332 332 332 331 330 330 332 332 333 333 334 334 335 337 336 335 334 334 333 332 332 333 333 334
337 335 335 334 334 334 335 337 338 339 336 336 337 337 337 337 337 337 337 336 336 338 338 337 337 336 336 336 336 335 336 336 336 335 334 333 334 332 332 331 332 331 329 329 332 332 334 333 333 333 334 334 335 336 332 332 333 332 333 333 333 334
335 335 335 334 333 333 334 334 336 338 336 336 336 337 338 338 338 337 336 335 335 337 337 336 336 336 336 336 336 336 337 336 337 335 333 332 332 333 331 331 330 333 330 329 332 331 333 334 333 333 332 333 334 335 333 331 332 333 334 332 333 333
336 336 335 334 334 333 333 334 335 337 338 336 336 337 338 338 338 337 336 335 335 337 338 336 336 336 335 336 336 336 335 335 336 334 333 331 331 332 331 330 330 331 331 330 331 331 332 333 333 333 332 331 333 334 335 333 334 340 334 332 332 332
336 336 335 335 335 335 334 334 335 336 337 336 336 337 336 337 338 337 334 335 334 335 339 336 337 336 334 335 335 334 334 335 336 333 333 331 329 330 330 329 329 329 332 330 332 332 333 333 333 331 330 330 331 332 332 335 339 337 334 333 333 334
335 336 336 336 336 334 334 333 333 335 336 336 336 337 337 338 338 337 336 334 333 334 337 337 336 336 335 334 334 334 334 335 336 334 333 331 329 328 329 328 328 329 330 332 331 331 332 334 329 328 333 330 329 332 334 336 337 336 335 336 336 338
335 337 336 335 334 333 331 332 333 333 333 335 336 337 337 338 338 338 337 335 334 335 336 337 336 335 335 337 335 334 333 334 335 335 334 334 332 329 329 330 329 333 329 328 329 329 331 332 331 330 327 327 328 331 334 338 337 336 337 335 335 335
334 336 336 336 335 334 334 333 332 333 334 335 336 335 335 337 337 338 338 335 335 334 335 336 337 335 336 335 335 334 333 333 334 335 335 335 332 335 333 330 330 328 327 328 326 327 331 330 326 325 325 324 324 325 328 333 332 335 336 336 335 334
334 336 336 336 336 334 335 335 334 334 335 335 338 338 337 339 339 338 338 338 336 335 334 335 337 337 335 334 335 334 334 333 333 335 336 334 335 332 329 330 329 329 327 328 327 330 331 328 327 323 324 324 319 319 324 324 327 330 333 335 335 335
334 336 336 337 337 337 337 336 336 335 336 336 336 339 339 339 339 338 337 338 337 335 335 335 336 336 336 335 334 334 334 333 333 335 335 332 331 332 330 330 329 330 328 326 326 329 331 328 326 326 323 321 319 317 317 319 320 326 332 334 335 335
335 335 336 337 337 336 337 334 334 334 335 335 337 336 335 334 335 336 337 337 337 337 336 335 336 337 337 335 335 335 334 334 333 334 335 333 333 334 333 332 330 331 328 328 325 323 329 329 327 328 328 321 320 318 318 320 318 322 329 333 334 334
336 336 335 336 337 336 335 333 331 330 328 329 329 331 330 330 332 333 334 337 338 337 336 336 336 337 338 337 335 335 335 334 333 334 335 334 334 333 332 332 331 331 329 327 328 323 325 329 330 331 328 327 326 321 322 321 320 319 324 328 328 331
335 336 336 336 336 336 334 333 332 331 331 330 329 331 333 333 333 335 336 335 337 337 337 336 335 336 337 339 336 335 335 335 335 334 336 333 332 333 334 334 333 331 330 328 327 325 325 327 329 328 329 330 332 328 325 325 321 319 318 323 324 328
335 336 336 336 335 336 334 333 332 331 331 330 330 330 333 333 334 336 335 335 335 335 336 336 335 335 336 337 337 335 335 334 334 333 335 333 332 332 333 335 335 332 330 330 328 328 326 327 328 327 329 328 329 332 330 326 323 324 320 318 322 325
335 335 336 335 335 335 335 333 333 332 331 332 332 332 335 336 335 336 333 334 333 334 335 335 333 333 334 335 338 336 335 334 334 334 337 334 332 332 333 334 334 332 331 330 329 329 328 327 327 326 326 325 326 328 328 328 327 325 322 318 319 317
333 334 335 335 335 334 334 335 332 332 331 331 332 333 334 333 333 333 331 332 333 333 334 334 334 334 334 334 336 337 335 334 334 334 336 335 333 332 333 333 334 333 332 331 330 331 330 328 329 327 327 327 325 325 327 327 328 326 323 323 322 320
333 334 334 334 335 334 334 334 333 332 332 331 332 332 331 331 332 332 331 331 331 332 333 333 332 332 332 334 334 337 335 334 334 335 336 335 333 333 333 334 333 333 332 331 330 330 331 329 329 328 327 328 327 326 326 325 326 326 326 322 321 322
332 332 333 334 334 334 334 334 334 333 332 332 332 331 330 330 331 331 331 331 331 331 331 331 330 331 332 333 334 335 336 335 335 334 334 335 334 334 334 333 333 332 332 331 330 331 330 329 328 328 328 328 328 329 329 328 328 329 326 324 323 322
330 332 332 333 332 333 333 333 333 333 333 333 332 332 331 331 331 331 331 331 329 329 329 328 328 329 331 332 333 333 333 334 334 334 334 334 335 334 334 333 333 332 332 330 330 330 329 330 330 329 328 329 329 329 329 330 329 328 328 326 325 323
330 331 332 332 332 332 332 333 334 333 333 333 332 332 332 331 331 331 331 331 330 330 329 329 329 330 332 332 333 333 334 334 334 334 334 334 335 335 335 333 333 332 331 331 330 330 330 330 330 331 331 329 329 329 330 330 329 328 327 326 324 324
330 331 331 331 331 331 332 333 333 333 333 333 332 332 332 331 330 329 329 329 329 330 330 330 330 331 332 332 333 333 333 333 332 332 333 334 334 335 335 335 334 332 332 331 330 330 329 329 328 329 330 331 330 330 330 331 329 329 329 329 328 325
331 331 332 332 332 331 332 333 333 333 333 333 334 333 332 331 331 330 328 329 329 329 330 331 332 332 332 333 332 331 332 332 332 332 332 332 333 333 334 333 333 332 330 331 330 329 329 329 329 329 330 330 330 331 332 332 331 331 330 330 330 327
333 333 333 333 333 332 332 332 332 332 332 332 332 332 331 331 330 330 329 329 329 330 330 331 332 333 331 332 332 331 331 331 331 332 332 332 333 333 333 333 332 331 330 331 331 330 329 329 329 329 329 329 330 331 331 332 332 332 329 329 329 330
Wind_Speed
4 5 5 4 4 5 7 13 11 13 13 13 12 11 11 12 10 8 8 10 9 4 6 4 5 5 10 6 9 10 9 8 7 6 6 5 5 3 3 3 3 1 2 2 3 5 6 5 4 3 4 4 6 4 2 3 4 4 4 4 4 4
5 6 4 4 4 4 4 9 5 6 6 8 9 9 8 3 5 3 10 6 4 4 4 5 7 7 5 6 7 9 9 7 6 6 7 6 6 5 3 2 1 1 2 3 4 3 3 4 5 5 5 6 4 2 3 3 4 4 4 4 4 5
6 6 5 4 4 4 4 4 4 5 4 7 6 5 4 3 5 4 5 3 4 4 5 5 6 5 3 7 5 8 8 7 6 6 7 7 6 6 4 2 1 1 2 4 4 3 3 2 3 4 4 3 2 1 3 4 3 3 4 4 3 6
7 7 7 5 4 4 4 4 4 5 4 3 3 4 4 4 3 1 1 3 4 3 3 3 6 6 3 3 2 6 5 8 7 6 7 6 6 7 5 3 1 1 2 2 2 3 3 2 2 2 2 1 0 2 3 3 4 3 3 4 4 8
7 7 7 6 6 5 4 4 4 5 4 4 4 5 4 4 3 2 3 3 4 4 3 1 5 6 3 3 3 0 3 2 3 2 4 2 1 1 1 1 2 2 1 2 3 3 3 2 2 2 2 2 2 1 2 3 3 3 3 4 4 8
7 7 7 6 6 6 6 5 5 4 5 4 5 5 5 5 5 4 4 4 4 4 3 5 3 5 1 1 3 1 3 4 3 3 2 3 1 0 1 1 2 2 2 2 2 2 2 2 1 2 2 2 2 2 2 3 3 3 4 4 4 8
7 7 7 6 5 5 5 5 5 5 5 5 4 5 5 5 5 5 5 5 5 4 4 5 4 6 5 4 4 3 3 3 4 3 1 2 3 2 2 1 2 3 3 3 3 2 3 2 2 3 1 1 1 2 2 3 3 4 4 4 4 8
6 6 6 6 6 5 4 5 5 6 5 6 5 5 4 5 5 5 5 4 5 4 4 5 4 5 5 4 4 3 3 3 3 3 2 2 3 3 3 1 2 3 4 3 3 4 4 4 4 3 5 4 1 2 3 3 4 4 4 4 4 6
6 7 5 6 6 5 5 5 5 5 5 7 5 5 5 4 5 5 5 5 5 4 4 4 4 3 3 3 3 3 3 3 3 3 3 3 3 3 3 3 3 3 3 4 4 4 4 4 4 4 4 5 4 3 4 3 4 4 4 4 4 5
9 7 7 6 6 6 6 5 5 5 5 6 4 4 5 5 4 5 5 5 6 4 4 4 4 4 4 4 3 3 4 4 4 3 3 4 3 3 3 3 3 3 3 3 4 3 3 4 4 4 4 5 5 4 4 4 4 4 4 3 3 4
8 9 6 7 6 6 6 5 5 4 5 5 4 5 4 5 5 5 5 6 5 5 4 4 4 4 4 4 3 4 4 4 4 4 4 4 2 3 3 3 3 3 3 3 4 3 3 4 5 5 4 4 5 4 4 3 3 3 3 3 3 3
8 9 8 7 7 6 6 6 6 4 5 4 5 5 4 4 5 4 5 5 5 5 6 5 5 4 4 4 4 3 4 4 4 4 4 3 3 3 3 3 3 3 3 3 4 3 3 4 6 5 4 5 4 4 4 3 3 3 3 3 3 3
8 8 8 8 7 6 5 6 6 6 5 4 4 5 5 5 4 4 4 5 5 5 5 5 5 5 5 4 4 3 4 4 4 3 3 4 3 3 3 3 3 3 3 3 4 4 3 3 4 4 2 2 2 3 1 2 2 2 3 3 3 3
8 9 9 7 6 6 6 6 5 5 5 5 5 5 5 5 5 4 4 5 5 5 5 4 5 4 4 4 4 4 4 4 3 3 3 3 4 3 4 4 3 2 3 3 4 4 3 3 2 1 1 2 2 2 2 1 1 2 2 3 3 3
9 9 9 8 8 7 6 6 6 5 5 6 5 5 5 5 5 5 5 5 5 5 5 5 5 5 4 4 4 4 5 4 3 3 3 4 4 3 4 5 3 3 3 3 3 2 3 2 1 2 2 2 2 3 2 2 1 2 3 2 2 3
11 11 10 9 8 8 8 7 6 6 5 5 5 5 5 5 5 5 5 5 5 6 5 5 5 5 5 5 5 5 5 4 3 3 4 3 3 5 4 4 4 3 4 4 3 2 2 3 1 0 1 0 1 1 1 1 2 2 2 2 2 3
12 12 10 9 7 7 7 8 7 7 6 6 5 5 5 5 5 6 5 5 6 6 6 6 6 6 5 5 5 5 4 3 3 4 3 3 4 4 4 4 4 3 4 3 3 3 2 2 2 2 1 2 1 1 1 1 1 1 1 3 3 3
8 9 9 9 9 8 7 7 6 6 7 6 6 5 5 5 5 5 5 6 6 6 6 6 6 6 5 5 5 5 4 3 3 3 3 3 4 3 4 4 5 2 3 3 4 4 4 2 1 1 0 1 1 1 1 0 0 1 1 2 3 4
9 8 8 8 7 7 7 5 5 5 6 6 5 5 6 4 5 5 5 5 5 5 5 6 6 6 6 5 4 4 4 4 3 3 2 2 3 2 3 4 4 2 2 2 5 6 4 4 3 2 0 1 1 2 1 1 1 1 1 2 3 4
7 8 7 7 6 6 6 6 7 7 6 6 5 5 6 6 5 5 5 6 6 6 5 5 6 6 5 5 5 5 5 4 4 3 3 3 4 3 5 5 5 5 4 2 1 2 4 5 2 2 0 2 1 1 1 1 2 2 2 2 2 1
7 7 8 8 9 7 7 6 8 9 9 8 7 6 5 6 5 5 6 5 6 6 6 6 6 6 6 6 6 5 4 4 3 4 4 5 5 5 5 5 3 2 5 3 1 1 2 3 4 1 1 2 3 1 3 3 3 3 3 2 1 1
7 7 8 8 8 7 7 7 6 8 7 7 8 8 7 6 6 5 5 5 5 5 6 6 6 6 6 6 6 5 5 5 5 5 6 5 4 4 4 4 5 3 1 3 3 0 2 3 2 1 1 4 4 5 1 2 1 1 2 3 2 2
7 8 7 7 7 7 7 7 7 5 8 5 4 5 5 5 6 6 6 6 6 5 6 6 6 7 6 6 6 6 6 5 6 5 5 4 3 2 3 6 7 6 3 2 2 0 2 0 3 2 2 1 3 5 4 3 2 2 2 3 2 2
7 7 6 7 7 5 6 5 5 4 5 5 4 5 4 5 6 6 7 7 6 6 7 6 7 7 6 6 6 6 6 6 6 5 5 3 2 3 3 4 4 5 5 3 2 2 1 1 3 5 1 1 1 1 4 3 3 4 2 3 4 3
7 7 6 6 8 5 6 5 4 4 4 4 2 5 5 5 5 6 6 7 6 7 7 7 7 7 7 7 6 6 6 5 5 5 5 6 7 6 5 5 6 5 6 5 4 2 1 2 2 2 5 3 1 1 3 3 3 3 1 2 2 2
6 6 6 6 7 6 6 5 6 6 6 6 6 7 9 9 7 8 7 6 7 7 7 7 7 7 7 7 7 6 6 6 5 5 5 5 5 4 4 5 6 6 6 4 5 4 3 2 1 1 1 2 3 2 1 1 2 4 3 2 3 3
7 6 6 7 7 6 5 5 6 6 6 6 6 5 3 4 5 5 4 5 5 7 7 7 7 7 7 8 7 6 6 6 6 5 4 4 4 5 5 5 4 4 2 3 4 4 6 5 2 1 2 2 3 3 0 2 2 1 4 3 2 2
7 8 6 7 8 7 6 5 6 6 6 4 5 3 5 4 3 4 5 6 4 4 5 7 6 6 6 7 6 6 6 6 5 5 4 5 5 4 4 3 4 5 5 6 7 6 5 5 6 3 3 3 2 3 3 3 2 4 3 3 5 3
8 8 6 8 8 7 7 5 6 5 6 5 3 3 3 4 4 5 5 5 5 4 4 5 6 7 6 6 6 5 5 6 5 5 5 5 4 5 6 5 4 4 6 5 5 5 5 5 5 4 3 1 1 2 2 2 1 1 2 2 4 2
9 7 6 7 7 7 7 6 6 6 7 5 4 4 4 5 5 4 5 5 5 5 6 6 5 6 7 5 5 4 5 6 6 5 6 6 6 5 5 5 6 6 5 6 4 5 6 5 4 4 5 5 4 2 3 3 3 2 0 2 5 3
9 7 8 8 8 8 8 8 7 7 8 7 6 5 5 5 5 6 6 5 6 6 5 4 2 3 4 4 5 5 6 6 6 5 6 6 6 6 6 6 5 5 5 6 5 5 3 3 4 5 5 5 6 6 6 6 6 5 5 4 2 4
10 11 10 9 9 9 8 9 7 7 8 7 6 5 6 7 6 6 6 5 5 5 5 4 4 5 5 5 5 5 6 5 5 5 5 6 6 6 5 5 4 5 5 4 4 5 4 4 4 4 6 5 5 5 5 5 4 4 5 5 4 3
14 14 13 13 14 12 10 10 9 8 8 7 7 6 6 6 5 5 6 6 5 6 5 6 7 9 7 7 7 6 6 6 6 6 6 6 6 6 5 5 5 5 5 6 6 6 5 6 6 7 6 6 4 5 5 3 4 4 4 3 3 3
13 13 12 12 12 12 11 10 10 9 7 7 7 6 6 6 6 5 5 6 6 6 6 7 8 8 6 6 7 7 7 7 6 6 6 6 7 6 6 5 5 6 6 6 5 6 6 6 6 7 5 5 6 5 4 3 4 4 4 4 3 4
13 12 12 12 11 12 10 10 9 8 7 6 6 6 6 6 6 6 5 6 6 6 6 6 7 6 6 7 8 7 7 7 6 6 6 6 6 6 5 5 6 6 5 5 6 5 5 6 6 6 6 6 6 5 4 3 4 4 4 5 4 3
2 5 7 7 7 8 8 7 8 8 7 6 6 5 5 5 5 6 7 6 6 6 5 5 5 6 6 6 7 8 7 6 5 5 6 7 7 6 6 6 6 6 6 5 6 7 5 6 7 7 7 5 5 5 4 4 4 4 3 2 2 2
6 5 6 7 5 6 6 7 8 7 5 6 6 7 7 7 7 6 7 7 6 6 5 5 5 5 7 6 4 5 6 7 8 7 7 7 7 7 7 7 7 7 7 6 6 7 4 3 4 4 4 6 6 4 4 4 4 5 3 3 3 3
Wind_Direction
150 156 153 153 157 162 183 180 182 185 187 189 189 192 195 198 189 202 207 196 183 160 152 224 217 199 185 180 173 173 172 172 183 191 191 188 187 180 147 118 100 51 4 22 18 40 34 33 34 21 46 41 49 64 117 143 166 182 189 197 181 181
152 158 152 147 154 165 182 181 166 183 189 195 194 193 192 177 164 164 227 196 141 170 159 164 220 190 166 186 171 174 172 179 182 199 207 200 208 213 206 148 119 356 331 336 28 44 27 24 22 26 41 44 49 53 104 142 158 185 195 200 187 196
162 155 151 154 162 160 171 149 160 166 181 194 197 183 128 151 151 170 265 130 152 167 174 201 184 173 143 181 152 170 176 173 190 200 213 214 207 208 214 222 227 307 330 1 38 13 6 55 19 37 40 32 55 59 112 135 163 188 204 208 196 204
167 158 160 162 154 159 154 156 157 159 173 164 130 116 128 121 87 18 337 130 150 156 161 199 197 177 72 345 121 178 189 167 181 200 211 219 221 205 213 238 257 27 30 23 5 0 354 27 64 106 107 56 344 122 147 156 173 191 209 222 213 213
169 162 162 166 164 169 158 150 154 157 148 139 129 126 118 126 104 149 171 168 156 164 171 68 31 54 42 358 331 40 169 134 120 163 213 102 76 345 34 2 8 32 10 355 341 356 356 20 72 115 134 189 212 167 172 168 180 181 211 226 226 221
164 168 169 168 171 174 160 160 162 158 142 134 136 141 135 137 179 194 173 169 145 154 137 77 94 100 148 170 272 316 129 124 117 161 44 147 88 86 241 27 19 348 332 313 322 320 328 332 332 162 165 179 186 189 177 187 188 196 199 216 236 230
169 165 165 163 155 169 163 165 159 160 149 148 142 141 149 147 166 175 169 163 150 151 112 106 139 149 205 167 219 178 120 131 139 151 154 170 204 258 266 269 349 301 303 298 307 298 292 266 297 318 341 135 187 199 189 189 195 201 202 206 226 235
171 162 158 157 163 176 161 164 170 165 160 165 152 155 157 158 155 163 166 164 151 140 138 129 175 164 197 187 191 133 104 114 170 166 174 176 191 249 264 291 257 287 292 299 315 311 318 324 334 343 321 323 295 225 221 203 199 203 200 206 207 234
174 172 157 163 173 176 164 165 172 169 159 180 159 159 163 156 157 157 161 162 160 153 143 145 162 172 164 197 164 131 136 160 178 194 173 209 199 226 260 261 267 269 283 303 308 310 328 323 332 318 300 297 286 245 238 217 208 204 199 198 201 224
177 170 169 170 176 175 172 172 177 176 157 177 161 146 155 162 154 155 161 170 170 160 155 156 172 177 193 215 166 150 151 174 189 188 182 208 214 209 244 274 282 290 297 300 315 305 315 313 308 280 262 259 257 241 229 216 207 205 197 194 197 209
177 179 165 182 180 178 166 178 174 162 163 178 152 147 164 159 159 167 165 167 165 165 162 164 173 180 200 215 191 169 178 165 199 196 193 213 190 211 219 234 249 266 282 298 283 296 303 286 274 263 242 249 259 255 240 216 204 193 195 196 190 198
178 177 176 181 185 176 170 174 165 162 169 167 143 156 168 167 173 172 159 163 158 159 184 173 176 178 192 210 208 185 186 188 206 190 189 193 194 209 215 237 242 246 258 269 284 277 251 256 265 267 269 255 260 259 261 222 195 180 188 184 189 201
176 175 175 180 182 178 164 170 165 175 171 162 159 157 168 182 173 172 165 162 159 166 174 167 175 178 199 204 206 203 208 213 204 187 183 184 191 202 217 230 240 242 253 247 265 273 265 255 274 277 254 249 290 275 266 180 178 172 181 179 185 200
179 180 179 175 170 169 173 175 177 172 172 165 167 166 173 169 173 167 168 166 166 172 174 167 162 174 183 193 207 220 227 230 211 193 188 182 200 199 219 229 230 231 255 252 262 283 282 289 310 337 2 357 336 334 357 305 204 189 180 182 177 197
182 183 180 178 174 173 171 179 177 177 174 169 166 168 165 163 170 165 162 168 168 176 171 169 167 167 180 180 197 225 232 236 216 199 208 212 208 212 217 237 215 251 284 274 263 253 205 225 355 344 5 23 351 340 351 295 284 239 206 183 174 204
182 182 182 181 175 169 171 178 180 182 170 169 164 167 168 169 169 161 163 163 169 177 169 170 169 168 179 191 201 214 230 216 216 216 228 227 211 230 228 243 229 200 260 286 277 249 157 175 115 303 299 23 291 284 314 342 238 228 206 172 196 208
186 184 181 176 169 166 165 175 179 178 174 167 169 168 166 158 161 166 168 167 168 175 162 168 174 175 177 195 206 221 242 212 207 218 222 219 226 234 229 243 245 198 184 255 229 228 210 172 154 206 203 205 235 246 270 305 325 240 171 186 199 214
190 186 180 177 172 170 171 170 174 176 172 173 173 165 158 161 172 180 175 180 177 174 163 168 170 174 180 193 197 205 228 205 192 178 183 188 234 228 225 215 247 210 178 191 206 201 211 180 148 154 348 246 262 270 248 188 245 63 165 205 209 219
187 183 181 177 169 162 158 162 164 169 171 168 163 162 156 175 177 180 184 189 175 189 169 166 170 171 175 186 192 202 214 209 203 199 192 266 273 237 194 194 217 203 137 170 209 199 177 159 145 130 65 276 249 256 291 297 327 285 232 218 222 231
184 176 172 172 167 158 157 166 175 186 191 177 169 168 166 173 162 178 185 164 179 200 179 169 176 172 173 178 192 203 201 179 199 185 185 242 269 252 217 196 204 174 140 163 32 136 147 133 90 77 307 294 273 284 285 264 249 264 282 240 219 251
179 175 173 175 173 161 165 165 186 191 195 188 179 173 167 170 167 178 184 174 176 183 179 172 179 173 174 187 193 192 181 191 193 199 209 215 203 216 213 202 172 138 158 160 69 32 101 109 115 222 335 325 316 260 246 229 240 255 278 293 299 303
174 182 182 179 172 169 175 182 179 188 186 182 186 189 189 172 167 170 172 166 184 177 181 182 182 186 181 181 178 176 183 188 191 206 214 210 188 187 166 151 149 96 22 163 201 86 201 126 44 154 4 325 331 319 277 209 277 284 299 280 289 309
181 183 181 175 176 183 181 184 184 174 181 174 177 179 164 158 165 172 176 175 179 181 184 190 187 187 189 189 184 174 185 180 192 206 206 203 189 145 163 171 175 158 135 63 114 181 218 85 147 123 128 46 341 357 326 357 2 356 309 290 293 290
182 185 180 178 181 178 177 167 166 146 168 176 164 168 143 144 165 170 194 182 181 184 191 195 193 192 194 192 185 185 177 186 196 201 200 158 253 193 166 166 163 166 137 130 94 144 66 116 136 148 301 49 308 47 334 340 328 298 304 281 266 263
176 179 182 179 179 160 162 146 140 120 129 170 155 164 176 188 182 192 190 184 185 182 191 195 197 196 194 194 190 184 180 184 185 193 197 183 194 193 187 182 170 158 171 162 176 205 224 188 187 212 141 131 170 278 231 275 342 288 303 250 237 275
164 168 172 175 173 163 164 157 153 158 173 185 199 196 200 204 193 198 196 186 180 184 191 198 197 198 199 193 192 187 178 174 187 191 203 203 202 170 176 180 188 174 187 180 151 148 202 247 93 127 84 129 182 198 242 237 47 303 317 234 290 286
164 163 161 167 166 169 168 168 175 181 191 196 197 202 183 191 198 194 165 169 178 175 190 201 205 199 197 197 192 185 182 186 187 185 185 174 199 200 189 194 168 161 102 131 141 160 187 184 122 198 127 65 27 30 97 133 286 30 327 317 323 319
167 169 161 161 168 170 178 176 181 192 202 217 209 185 179 189 151 154 175 184 181 189 187 204 209 207 203 200 190 187 186 191 187 180 173 186 201 199 187 189 177 153 173 187 184 174 190 176 176 170 153 162 152 135 87 42 132 222 224 269 311 330
166 169 161 160 167 174 183 182 189 194 205 214 207 192 160 178 177 179 184 188 188 191 198 195 201 212 216 208 201 187 186 196 198 188 188 194 197 187 190 185 179 165 183 195 190 187 156 187 186 163 147 100 175 177 127 119 258 299 173 183 277 275
165 162 158 159 164 174 182 193 193 192 203 201 190 191 180 181 182 178 193 176 184 196 199 199 198 204 205 204 201 188 191 204 206 197 202 201 195 193 187 189 193 193 187 188 202 183 194 181 165 165 203 169 194 157 198 193 201 196 10 197 246 302
161 155 158 166 168 179 181 193 200 197 198 197 183 176 183 194 180 174 191 190 188 198 197 198 138 216 230 205 197 194 199 209 204 207 208 198 203 200 198 192 191 188 182 187 177 194 182 153 150 174 197 191 194 189 187 195 199 205 219 230 236 260
167 168 169 173 176 186 186 193 198 195 195 193 191 179 186 203 200 196 194 195 187 184 191 153 168 217 214 203 196 209 210 207 215 210 209 206 206 203 195 185 181 192 194 172 175 190 176 177 178 177 199 200 204 201 202 189 176 178 189 219 209 228
188 179 176 177 185 190 191 196 198 197 196 190 192 190 188 195 195 204 206 208 189 195 175 164 199 212 216 197 201 205 207 207 212 211 213 207 207 202 194 189 195 195 187 186 187 184 187 199 194 197 205 210 202 202 210 193 153 172 192 156 182 219
193 186 180 179 183 187 194 196 196 198 194 191 191 192 192 194 188 199 199 210 205 202 193 189 200 207 197 191 203 210 204 208 207 207 211 213 212 205 195 191 192 195 198 199 182 188 196 190 200 209 201 199 211 209 210 187 178 162 161 159 178 206
189 186 181 180 179 185 191 194 196 197 194 187 186 184 192 190 185 192 201 206 209 203 202 198 200 203 187 192 202 202 204 206 203 204 205 204 205 200 192 194 197 206 204 190 192 187 195 182 196 203 204 208 214 216 213 184 167 190 171 185 178 168
220 192 183 182 183 185 190 189 196 198 195 186 191 181 179 186 189 183 184 209 212 204 209 198 195 187 189 191 193 198 199 204 192 197 205 202 196 193 194 195 199 196 201 189 188 196 201 192 203 199 206 207 208 220 210 198 198 196 195 178 182 156
126 145 171 182 172 173 176 190 202 201 191 190 185 188 192 193 193 191 178 191 210 210 203 195 200 189 180 185 207 204 200 194 199 201 202 195 187 188 186 196 200 195 198 188 192 201 190 200 224 210 210 206 214 221 213 202 204 209 169 155 217 210